Regional Weather Roundup
Issued by NWS Goodland, KS

Home | Current Version | Previous Version | Graphics & Text | Print | Product List | Glossary On
Versions: 1 2 3 4 5 6 7 8 9 10 11 12 13 14 15 16 17 18 19 20 21 22 23 24 25 26 27 28 29 30 31 32 33 34 35 36 37 38 39 40 41 42 43 44 45 46 47 48 49 50
000
ASUS43 KGLD 281008
RWRGLD

GOODLAND FORECAST AREA HOURLY WEATHER ROUNDUP
NATIONAL WEATHER SERVICE GOODLAND KS
400 AM MDT THU APR 28 2016

...OFFICIAL OBSERVATIONS...

CITY           SKY/WX    TMP DP  RH WIND       PRES   REMARKS
GOODLAND KS    MOCLDY    37  33  85 NW10      29.92R
HILL CITY KS   CLOUDY    38  32  79 NW9       29.91R
IMPERIAL NEB   CLEAR     32  28  85 NW15      29.91R
MCCOOK NEB     CLEAR     33  29  85 W12       29.91R
AKRON CO       MOCLDY    29  26  89 NW7       29.91F
BURLINGTON CO  CLOUDY    35  29  78 NW6       29.93R
LIMON CO       CLOUDY    34  27  75 N8        29.93R
$$

...UNOFFICIAL OBSERVATIONS...

CITY           SKY/WX    TMP DP  RH WIND       PRES   REMARKS
COLBY KS       PTCLDY    37  36  93 NW10      29.92S
GOVE KS          N/A     39  32  76 MISG        N/A
LENORA KS        N/A     36  32  85 MISG        N/A
NORTON KS      CLEAR     36  28  75 W13       29.89
SHARON SPRINGS   N/A     35  31  84 CALM        N/A
KIT CARSON CO    N/A     37  29  72 MISG        N/A
YUMA CO          N/A     32  29  90 CALM        N/A
$$



USA.gov is the U.S. government's official web portal to all federal, state and local government web resources and services.